Satellite-Ground Cal/Val Site Overpasses Predictions

Prediction of Satellite NPP Overpassing Cal/Val Site: Antarctic Dome C

Ground Cal/Val Site Location: Latitude: -75.10, Longitude: 123.35; Satellite-Ground Site NADIR distance within 100 km.

Table of predicted overpasses for the next 14.0 days since TLE Epoch: 12/20/2013
Interval Starting Time Ending Time Minimum Distance Time Minimum Distance (km)
1 12/20/2013 14:57:07 12/20/2013 14:57:35 12/20/2013 14:57:21 26.83
2 12/21/2013 14:38:24 12/21/2013 14:38:41 12/21/2013 14:38:33 80.16
3 12/22/2013 07:39:59 12/22/2013 07:40:27 12/22/2013 07:40:13 32.02
4 12/23/2013 07:21:15 12/23/2013 07:21:33 12/23/2013 07:21:24 77.94
5 12/25/2013 15:03:33 12/25/2013 15:03:55 12/25/2013 15:03:44 64.05
6 12/26/2013 14:44:43 12/26/2013 14:45:09 12/26/2013 14:44:56 45.11
7 12/27/2013 07:46:25 12/27/2013 07:46:47 12/27/2013 07:46:36 67.30
8 12/28/2013 07:27:34 12/28/2013 07:28:01 12/28/2013 07:27:48 40.55
9 12/31/2013 14:51:05 12/31/2013 14:51:34 12/31/2013 14:51:19 9.51


NCC Satellite Cal/Val Overpasses Prediction Service
